星链-30769 (STARLINK-30769 )

导读 | 星芒AI

STARLINK-30769 是 SpaceX Starlink 卫星互联网项目中的一颗低轨卫星。该卫星属于 Starlink 群体的一部分,旨在为全球用户提供高速互联网服务。它运行在约 550 公里的轨道高度,采用可控制的推进系统,以减少太空碎片风险。STARLINK-30769 与其他 Starlink 卫星协同工作,通过高频通信技术实现低延迟、高带宽的网络连接,尤其服务于偏远和网络基础设施薄弱的地区。该卫星的发射和运行体现了 SpaceX 在构建全球宽带网络方面的持续努力。

基本信息
目录编号:
58138
目录名称:
STARLINK-30769
国际标识:
2023-162W
轨道中心:
EARTH
卫星名称:
星链-30769
卫星全名:
星链-30769 (STARLINK-30769 )
卫星状态:
在轨 (已飞行740 天)
发射日期:
2023-10-22 UTC
国别 :
美国 (US)
星等 :
--
轨道信息
数据来源 国际轨道数据 AOE轨道数据
星历时间 2025-10-30T20:16:41+0800
19小时前
查看轨道信息
2025-10-31T02:00:00+0800
13小时前
查看轨道信息
半长轴 6937.207km 6937.205km
偏心率 0.0001418 0.000001
轨道倾角 43.004° 43.001°
近地点辐角 267.085° 56.270°
升交点赤经 120.788° 119.498°
平近点角 92.983° 154.885°
近地点 558.088km 559.063km
远地点 560.056km 559.077km
周期 95.838分钟 95.838分钟
每日圈数 15.025394 15.025399
详细信息
固有亮度:
5
最大亮度:
0.3
卫星平台:
Starlink v2.0 mini
覆盖范围:
全球
运营商:
太空探索技术公司
运营商所在国:
美国
制造商(研发单位):
太空探索技术公司
制造商所在国:
美国
使用方式:
暂无
卫星简介
星链(Starlink)计划是由太空探索技术公司(SpaceX)提出的一个巨型低轨卫星互联网星座项目,计划在2019年至2024年间在太空搭建由约1.2万颗卫星组成的“星链”网络,其中1584颗将部署在地球上空550千米处的近地轨道,并从2020年开始工作。该卫星仍在工作。
2D轨道图
3D轨道图
轨道高度分析图
轨道倾角分析图
轨道综合分析图
查看轨道综合分析图